Vorticity
nan nan nan nan nan nan nan nan nan nan nan nan nan nan nan nan nan nan nan nan nan nan nan nan nan nan nan nan nan nan nan nan nan nan nan nan nan nan nan nan nan nan nan
nan 9 7 5 5 4 3 3 3 4 4 4 4 5 5 5 5 5 7 7 6 6 7 8 8 6 6 6 5 4 5 4 5 5 6 2 2 5 6 6 5 8 nan
nan 8 8 7 5 5 4 4 3 3 3 4 4 5 5 5 5 5 7 7 6 6 7 6 7 6 6 6 6 5 4 4 5 5 -1 2 7 7 7 5 6 7 nan
nan 7 9 7 6 6 6 5 4 3 3 4 3 5 6 6 6 6 6 6 7 7 6 5 5 7 6 6 5 6 4 1 2 1 -0 7 8 6 6 5 4 6 nan
nan 7 10 9 6 6 5 5 5 5 5 4 5 5 6 6 7 6 6 7 7 6 6 6 5 7 7 6 4 4 7 1 3 2 5 8 8 8 5 5 4 5 nan
nan 8 11 8 5 5 5 5 5 6 5 4 5 6 6 7 7 6 6 6 6 7 6 5 6 6 6 5 3 4 8 11 3 4 6 6 9 10 6 6 6 6 nan
nan 8 10 9 6 6 5 5 6 5 4 5 4 5 6 6 6 6 5 6 6 5 5 5 6 6 5 5 4 3 2 5 2 5 7 7 11 9 7 6 6 6 nan
nan 6 9 8 6 7 7 5 6 5 5 5 5 5 5 6 6 6 6 6 6 6 5 5 5 5 5 5 5 5 8 6 4 5 6 8 11 7 6 5 6 6 nan
nan 4 6 7 9 6 4 6 5 5 5 4 4 5 5 5 5 6 6 6 5 5 6 4 4 4 6 5 4 6 15 10 3 7 6 7 9 7 5 6 6 6 nan
nan 6 6 5 5 6 9 8 5 5 5 5 4 5 4 4 4 5 4 7 7 6 5 4 4 4 4 4 4 7 13 6 5 6 6 12 10 7 5 5 6 6 nan
nan 6 6 5 5 6 9 10 9 6 5 4 4 2 -0 2 7 6 7 7 6 6 6 5 5 4 5 5 4 4 2 6 8 7 10 11 8 7 6 5 6 6 nan
nan 5 5 6 6 6 6 6 6 5 5 6 6 5 5 7 6 8 10 7 4 5 5 5 4 3 3 4 5 4 3 8 8 7 10 10 7 6 5 6 6 6 nan
nan 4 6 5 6 5 5 5 5 7 7 8 8 6 6 6 7 7 7 6 9 6 4 7 5 6 6 5 7 6 6 5 5 8 12 8 7 6 5 6 5 6 nan
nan 6 5 5 5 3 5 7 7 6 6 6 8 6 6 7 8 7 8 8 6 7 8 6 6 8 7 7 7 7 6 4 5 6 12 10 6 7 6 5 7 6 nan
nan 7 6 5 5 6 5 5 7 7 7 6 7 7 6 7 8 6 7 7 7 7 7 7 7 8 8 8 8 6 5 5 6 7 11 12 9 7 6 6 6 6 nan
nan 8 7 5 6 5 5 6 5 7 7 7 8 8 6 6 8 8 8 7 7 8 9 9 8 7 7 7 8 7 7 7 8 7 7 15 13 6 7 7 6 5 nan
nan 7 6 6 7 7 5 4 6 8 8 7 8 10 8 6 8 8 7 9 8 10 10 9 9 7 7 9 9 8 8 7 8 8 7 10 14 12 7 6 7 7 nan
nan 11 6 7 8 6 5 6 6 8 9 9 9 10 10 8 7 6 8 8 9 9 9 8 8 7 8 8 7 8 9 9 8 7 7 7 8 13 15 9 7 8 nan
nan 11 6 9 9 7 6 7 9 7 8 10 9 10 9 9 8 6 7 8 7 7 8 7 8 9 8 8 8 7 8 9 8 7 7 8 8 7 13 14 10 9 nan
nan 11 6 7 9 5 7 7 7 8 9 10 11 10 8 8 8 6 7 8 6 7 7 8 8 7 9 9 9 8 8 8 9 9 8 8 8 7 9 11 11 14 nan
nan 8 6 4 6 6 6 7 8 8 7 9 12 12 8 7 7 5 7 8 8 9 8 6 7 9 7 8 9 10 10 11 8 7 9 9 9 7 6 8 7 10 nan
nan 8 6 4 3 3 6 8 9 9 8 10 10 11 10 9 6 7 7 7 7 7 9 8 6 7 10 7 4 8 10 9 12 10 8 9 8 9 8 8 8 7 nan
nan 8 8 8 7 4 4 4 5 7 10 9 9 11 13 10 6 6 7 8 7 7 8 7 7 7 9 8 7 5 8 9 9 12 11 9 9 7 9 9 9 8 nan
nan 9 9 9 8 7 6 7 6 5 6 7 9 10 13 11 8 7 7 7 7 7 9 8 8 7 8 8 9 8 8 9 8 8 11 12 10 8 7 8 10 9 nan
nan 10 9 8 7 9 7 5 5 4 7 9 10 11 9 9 10 9 8 7 7 7 9 9 7 7 6 8 8 9 9 8 8 9 8 10 10 11 10 9 9 10 nan
nan nan nan nan nan nan nan nan nan nan nan nan nan nan nan nan nan nan nan nan nan nan nan nan nan nan nan nan nan nan nan nan nan nan nan nan nan nan nan nan nan nan nan
CAPE
1524 1968 2955 3121 2549 2479 2224 2080 2275 2467 2300 2353 2390 2105 1865 1947 2241 2451 2233 2404 2121 2056 2540 2424 2140 2212 2049 1951 1946 2179 1201 1137 1833 1433 1966 1939 1668 2441 2490 1906 1969 1734 2022
1557 2322 3292 3212 3073 2894 2719 2205 2374 2443 2175 2125 1980 1706 2019 2100 2035 2142 2420 2377 2033 2318 2390 2285 2168 2176 1291 1864 2214 1980 1067 1742 2080 1596 1646 1424 1790 1966 2320 2189 1914 1898 1983
1865 2355 2817 3228 3280 3014 2948 2742 2271 2162 2163 2103 1724 1972 2272 1923 2009 2229 2433 2258 2182 2419 2079 2290 2109 2204 1034 1954 2130 2079 1560 2281 2034 2089 1933 1118 1437 2048 2217 1668 1653 1421 1758
1910 2261 2508 3034 3385 3237 2989 2956 2792 2219 2205 2170 1784 2269 2008 1739 1737 2154 2123 2310 2349 2083 2134 1738 1807 1856 1198 1646 1746 1787 1970 2482 1568 1778 964 1233 1703 2010 2224 1849 2400 2374 2332
1849 1963 2234 3329 3430 3156 2887 2936 3073 2863 2337 1839 2358 2022 1956 1407 1385 1700 2203 2150 2051 1924 2227 2073 1839 989 840 1533 1728 1424 1499 1677 1375 417 448 851 1382 1904 2304 1676 2179 2375 2422
1750 1962 2841 3439 2953 3124 3013 3119 2839 2753 2323 1990 1964 1594 1958 1785 1545 1687 1832 2168 1989 1967 2250 2076 2265 974 731 1585 1820 1439 1426 1557 1370 342 472 1373 1255 2028 2483 1989 2069 2406 2254
1738 2171 2574 3315 3416 3404 3193 3098 2889 2689 2194 2546 1895 2138 2064 1872 1928 1948 1853 2090 2142 1974 1974 2069 2028 1773 1259 1315 1597 1051 1296 1737 768 708 786 726 1475 2521 2338 2287 2268 2555 2364
1760 2102 2352 2914 3214 3479 3120 2804 2982 2502 2153 2312 1896 2367 1856 1973 1995 1951 1973 1953 2135 1959 2041 2039 1977 1895 1353 591 449 709 804 1333 1012 1034 1061 1306 2466 2640 2291 2089 2279 2368 2421
1747 1998 2088 2138 2247 2839 3368 2783 2532 2412 2042 2403 1622 1742 1844 2150 1862 1743 1775 1959 1984 2003 1928 1953 1833 1930 1460 1197 1262 982 1256 1793 734 981 1032 1380 2424 2263 2326 2456 2542 2457 2359
1491 1694 1670 1719 1777 2208 2246 2638 2310 2068 1884 2463 1825 1384 1519 1468 1334 1544 2228 2102 1891 1834 1837 1738 1695 1653 1719 1746 970 1629 1523 1433 659 841 1269 1634 2642 1967 2161 2353 2357 2485 2189
1428 1494 1510 1541 1417 1506 1557 1856 2290 1828 2185 2610 2071 1917 1903 684 773 1035 1531 1803 1627 1725 1627 1724 1533 1414 1404 1363 1175 1238 730 365 452 777 1104 2406 2530 2066 2241 2273 2391 2333 2483
1248 1248 1202 1205 1195 1152 1592 1208 1137 1380 1516 1174 1547 1793 908 401 256 609 1223 1640 1683 1427 1661 1708 1459 1375 1324 509 665 615 35 198 351 608 1055 2452 2158 1855 2108 2324 2287 2390 2614
1040 1050 1019 938 869 983 1168 872 489 331 509 885 1076 1013 898 461 498 590 517 1057 1017 1468 835 988 1160 922 637 225 38 153 21 68 6 195 748 2278 2223 1525 1893 2231 2159 2207 2555
818 917 906 743 571 811 1406 1113 749 711 444 289 473 924 765 38 145 424 288 243 325 672 329 571 475 376 158 187 3 206 55 35 2 1 152 1795 2178 2490 1986 2168 2120 2173 2428
729 871 739 508 360 571 1456 1314 1200 1169 889 488 305 612 527 48 120 354 112 78 78 227 351 199 216 223 146 142 81 120 70 6 12 12 45 1090 2077 2511 2174 1870 2198 2434 2456
735 768 610 341 65 540 1274 1250 912 806 955 908 866 556 422 71 215 269 146 50 42 54 491 296 183 164 63 116 11 41 70 101 164 56 82 396 1664 2232 1918 2105 2117 2105 2285
590 683 474 249 31 566 868 750 890 528 504 306 792 500 418 73 71 69 108 63 192 498 77 403 141 99 114 127 40 8 53 129 192 100 117 106 878 1743 1453 1448 2442 2284 2447
432 404 356 273 118 391 439 221 514 341 230 292 502 224 285 132 12 28 100 543 628 241 216 304 167 108 112 182 33 57 44 60 106 92 104 18 76 675 1217 1617 1950 2025 2148
330 301 219 179 243 370 314 283 334 402 446 348 513 400 292 273 16 143 137 159 211 329 150 175 125 124 104 146 152 120 85 34 85 96 63 128 63 388 513 1348 1442 1883 1775
333 302 230 118 88 142 267 346 93 80 99 395 584 559 160 418 221 222 112 148 236 35 264 106 182 71 107 126 472 371 165 59 27 96 80 111 48 138 119 388 737 607 1779
483 394 296 237 105 56 191 394 129 30 13 124 341 353 253 600 274 205 156 168 120 52 189 165 120 125 91 172 162 152 140 82 41 32 69 72 17 15 1 12 101 202 952
511 398 331 294 187 87 169 227 247 60 0 0 145 646 431 688 455 250 235 259 207 53 222 149 151 113 62 128 62 44 42 36 94 93 65 79 7 0 0 0 14 41 109
674 424 441 584 391 267 281 70 461 598 541 178 107 555 515 684 620 395 253 303 337 145 226 96 82 92 25 84 24 20 26 24 37 115 51 20 25 4 0 0 0 0 5
1013 927 988 1095 589 465 414 282 457 634 749 476 216 439 685 641 565 442 365 502 404 301 189 307 95 41 80 75 42 13 42 25 16 13 20 4 1 2 21 0 0 0 0
981 1485 1265 1179 1192 1225 778 491 429 554 582 539 340 532 818 709 730 641 491 661 474 263 100 251 350 32 6 42 54 42 18 60 27 59 38 38 22 35 2 0 0 0 0
1175 1435 1544 1286 1194 1491 1506 935 684 653 659 712 571 624 922 769 625 839 531 506 479 307 138 83 69 110 102 46 71 64 64 88 115 87 57 24 68 58 71 29 18 0 0